This is the latest recevied weather packets stored in our database for station/object VK5KX. If no packets are shown the sender has not sent any weather packets the latest 10 day(s).
| Time | Temp. | Humidity | Pressure | Rain* | Wind** | Luminosity | Snow |
|---|---|---|---|---|---|---|---|
| 1777514410 | 27.78° C | 24% | 1021.7 hPa | 0 mm | - | - | - |
| 1777513507 | 27.22° C | 24% | 1021.7 hPa | 0 mm | - | - | - |
| 1777512604 | 26.67° C | 28% | 1021.8 hPa | 0 mm | - | - | - |
| 1777511769 | 26.11° C | 30% | 1022 hPa | 0 mm | - | - | - |
| 1777510866 | 25.56° C | 31% | 1022.2 hPa | 0 mm | - | - | - |
| 1777509978 | 25.56° C | 31% | 1022.4 hPa | 0 mm | - | - | - |
| 1777509054 | 25° C | 32% | 1022.6 hPa | 0 mm | - | - | - |
| 1777508158 | 25° C | 31% | 1022.7 hPa | 0 mm | - | - | - |
| 1777507247 | 25° C | 31% | 1022.7 hPa | 0 mm | - | - | - |
| 1777506346 | 24.44° C | 31% | 1022.8 hPa | 0 mm | - | - | - |
| 1777505450 | 24.44° C | 32% | 1022.8 hPa | 0 mm | - | - | - |
| 1777504544 | 23.89° C | 32% | 1022.7 hPa | 0 mm | - | - | - |
| 1777503636 | 23.89° C | 32% | 1022.6 hPa | 0 mm | - | - | - |
| 1777502743 | 23.33° C | 32% | 1022.6 hPa | 0 mm | - | - | - |
| 1777501836 | 22.78° C | 33% | 1022.5 hPa | 0 mm | - | - | - |
| 1777500936 | 22.22° C | 33% | 1022.3 hPa | 0 mm | - | - | - |
| 1777500037 | 22.78° C | 33% | 1022.1 hPa | 0 mm | - | - | - |
| 1777499133 | 22.22° C | 32% | 1022 hPa | 0 mm | - | - | - |
| 1777498236 | 22.22° C | 33% | 1021.9 hPa | 0 mm | - | - | - |
| 1777497333 | 22.22° C | 34% | 1021.8 hPa | 0 mm | - | - | - |
| 1777496432 | 22.22° C | 34% | 1021.7 hPa | 0 mm | - | - | - |
| 1777495532 | 22.22° C | 35% | 1021.5 hPa | 0 mm | - | - | - |
| 1777494639 | 22.22° C | 35% | 1021.5 hPa | 0 mm | - | - | - |
| 1777493730 | 22.22° C | 35% | 1021.4 hPa | 0 mm | - | - | - |
| 1777492833 | 22.22° C | 35% | 1021.4 hPa | 0 mm | - | - | - |
* Rain latest hour (hover to see other rain measurements)
** Current wind speed in m/s (hover to see current wind gust speed)